This is the latest recevied weather packets stored in our database for station/object IK8SUT-10. If no packets are shown the sender has not sent any weather packets the latest 10 day(s).
| Time | Temp. | Humidity | Pressure | Rain* | Wind** | Luminosity | Snow |
|---|---|---|---|---|---|---|---|
| 1778011269 | 22.78° C | 56% | 1018.6 hPa | - | - | - | - |
| 1778010368 | 22.78° C | 56% | 1018.5 hPa | - | - | - | - |
| 1778009467 | 22.78° C | 56% | 1018.3 hPa | - | - | - | - |
| 1778008566 | 22.78° C | 56% | 1018.2 hPa | - | - | - | - |
| 1778007665 | 22.78° C | 56% | 1018.1 hPa | - | - | - | - |
| 1778006765 | 22.78° C | 56% | 1018 hPa | - | - | - | - |
| 1778005864 | 22.78° C | 55% | 1017.9 hPa | - | - | - | - |
| 1778004963 | 22.78° C | 56% | 1017.7 hPa | - | - | - | - |
| 1778004062 | 22.78° C | 55% | 1017.8 hPa | - | - | - | - |
| 1778003161 | 22.78° C | 55% | 1017.7 hPa | - | - | - | - |
| 1778002261 | 22.78° C | 56% | 1017.8 hPa | - | - | - | - |
| 1778001360 | 22.78° C | 56% | 1017.8 hPa | - | - | - | - |
| 1778000459 | 22.78° C | 54% | 1017.9 hPa | - | - | - | - |
| 1777999578 | 22.78° C | 55% | 1018 hPa | - | - | - | - |
| 1777998677 | 22.78° C | 54% | 1018.1 hPa | - | - | - | - |
| 1777997776 | 22.78° C | 54% | 1018.2 hPa | - | - | - | - |
| 1777996875 | 22.78° C | 53% | 1018.3 hPa | - | - | - | - |
| 1777995974 | 22.78° C | 53% | 1018.4 hPa | - | - | - | - |
| 1777995074 | 22.22° C | 51% | 1018.5 hPa | - | - | - | - |
| 1777994173 | 22.78° C | 52% | 1018.6 hPa | - | - | - | - |
| 1777993272 | 22.78° C | 54% | 1018.7 hPa | - | - | - | - |
| 1777992371 | 22.78° C | 54% | 1018.8 hPa | - | - | - | - |
| 1777991470 | 22.78° C | 53% | 1018.8 hPa | - | - | - | - |
| 1777990569 | 22.78° C | 55% | 1018.9 hPa | - | - | - | - |
| 1777989669 | 22.78° C | 51% | 1018.8 hPa | - | - | - | - |
* Rain since midnight (hover to see other rain measurements)
** Current wind speed in m/s (hover to see current wind gust speed)